COSMOS 1989 (ETALON 1)

Last updated on Wed Sep 17 2025 00:03:37 GMT+0000 (Coordinated Universal Time)

1 19751U 89001C 25258.79924966 .00000039 00000+0 00000+0 0 9995 2 19751 64.7858 81.5899 0023415 216.7851 154.0885 2.13156032285524
UTC large
Height (km)
Speed (km/s)
/
Latitude / Longitude
Inclination (degrees)
Orbital Period (minutes)
Azimuth
Elevation
Range (km)
Doppler Factor

Next 0 passes for location: London (51.5072 / 0.1276)

Sorry there are no passes over London.